Terminal Aerodrome Forecast
Issued by NWS

Home | Current Version | Previous Version | Graphics & Text | Print | Product List | Glossary On
Versions: 1 2 3 4 5 6 7 8 9 10 11 12 13 14 15 16 17 18 19 20 21 22 23 24 25 26 27 28 29 30 31 32
000
FTUS43 KABR 200400 AAA
TAFPIR
TAF AMD
KPIR 200416Z 2004/2024 VRB03KT 1SM BR SCT002 SCT090
      TEMPO 2009/2013 1/2SM FZFG BKN002
     FM201500 VRB05KT 2SM BR SCT001=

USA.gov is the U.S. government's official web portal to all federal, state and local government web resources and services.